Satellite: LIBERT
Catalog number: 31129
Epoch time:      08010.60870132
Element set:     658
Inclination:      098.0618 deg
RA of node:       080.6285 deg
Eccentricity:    0.0103554
Arg of perigee:   105.1645 deg
Mean anomaly:     256.1006 deg
Mean motion:   14.51993838 rev/day
Decay rate:       3.39e-06 rev/day^2
Epoch rev:            3890
Checksum:              287

/EX
SB KEPS @ AMSAT  $ORB08010.W
Orbital Elements  08010.WEATHER

HR AMSAT ORBITAL ELEMENTS FOR WEATHER SATELLITES
FROM WA5QGD FORT WORTH,TX January 10, 2008
Send Subscribe/unsubscribe to KEPS at 
http://www.amsat.org/mailman/listinfo/keps
BID: ORB08010.W
TO ALL RADIO AMATEURS BT

Satellite: NOAA-10
Catalog number: 16969
Epoch time:      08009.74851470
Element set:    0960
Inclination:      098.7342 deg
RA of node:       031.9381 deg
Eccentricity:    0.0011641
Arg of perigee:   287.6490 deg
Mean anomaly:     072.3429 deg
Mean motion:   14.27346720 rev/day
Decay rate:       -4.5e-07 rev/day^2
Epoch rev:           10869
Checksum:              315

Satellite: NOAA-11
Catalog number: 19531
Epoch time:      08010.33609305
Element set:     994
Inclination:      098.8052 deg
RA of node:       101.8630 deg
Eccentricity:    0.0011809
Arg of perigee:   157.8326 deg
Mean anomaly:     202.3360 deg
Mean motion:   14.14861437 rev/day
Decay rate:      -1.56e-06 rev/day^2
Epoch rev:           99544
Checksum:              292

Satellite: NOAA-12
Catalog number: 21263
Epoch time:      08010.50380292
Element set:     500
Inclination:      098.7620 deg
RA of node:       012.5011 deg
Eccentricity:    0.0011829
Arg of perigee:   223.3749 deg
Mean anomaly:     136.6480 deg
Mean motion:   14.25511450 rev/day
Decay rate:       -3.3e-07 rev/day^2
Epoch rev:           86578
Checksum:              261

Satellite: MET-3/5
Catalog number: 21655
Epoch time:      08009.96139271
Element set:    0392
Inclination:      082.5529 deg
RA of node:       216.8469 deg
Eccentricity:    0.0014579
Arg of perigee:   053.6223 deg
Mean anomaly:     306.6241 deg
Mean motion:   13.17014269 rev/day
Decay rate:        5.1e-07 rev/day^2
Epoch rev:           78862
Checksum:              314

Satellite: MET-2/21
Catalog number: 22782
Epoch time:      08010.62359505
Element set:      34
Inclination:      082.5453 deg
RA of node:       237.3453 deg
Eccentricity:    0.0023249
Arg of perigee:   018.2634 deg
Mean anomaly:     341.9353 deg
Mean motion:   13.83624509 rev/day
Decay rate:       1.12e-06 rev/day^2
Epoch rev:           72520
Checksum:              274

Satellite: OKEAN-4
Catalog number: 23317
Epoch time:      08010.45291962
Element set:     474
Inclination:      082.5409 deg
RA of node:       103.1862 deg
Eccentricity:    0.0020545
Arg of perigee:   292.1692 deg
Mean anomaly:     067.7310 deg
Mean motion:   14.82568537 rev/day
Decay rate:       2.65e-06 rev/day^2
Epoch rev:           71476
Checksum:              299

Satellite: NOAA-14
Catalog number: 23455
Epoch time:      08009.88212973
Element set:    0971
Inclination:      098.9680 deg
RA of node:       081.9146 deg
Eccentricity:    0.0008958
Arg of perigee:   231.1196 deg
Mean anomaly:     128.9171 deg
Mean motion:   14.13734336 rev/day
Decay rate:       3.13e-06 rev/day^2
Epoch rev:           67184
Checksum:              327

Satellite: SICH-1
Catalog number: 23657
Epoch time:      08009.82592396
Element set:     273
Inclination:      082.5264 deg
RA of node:       244.7070 deg
Eccentricity:    0.0022463
Arg of perigee:   286.0259 deg
Mean anomaly:     073.8479 deg
Mean motion:   14.81542441 rev/day
Decay rate:       2.73e-06 rev/day^2
Epoch rev:           66662
Checksum:              317

Satellite: NOAA-15
Catalog number: 25338
Epoch time:      08010.49615476
Element set:     308
Inclination:      098.5438 deg
RA of node:       006.4751 deg
Eccentricity:    0.0011169
Arg of perigee:   140.7791 deg
Mean anomaly:     219.4188 deg
Mean motion:   14.24681246 rev/day
Decay rate:        3.5e-07 rev/day^2
Epoch rev:           50220
Checksum:              295

Satellite: RESURS
Catalog number: 25394
Epoch time:      08010.67912094
Element set:     828
Inclination:      098.4127 deg
RA of node:       061.6789 deg
Eccentricity:    0.0001286
Arg of perigee:   343.0461 deg
Mean anomaly:     017.0675 deg
Mean motion:   14.24151849 rev/day
Decay rate:       -2.2e-07 rev/day^2
Epoch rev:           49388
Checksum:              306

Satellite: FENGYUN1
Catalog number: 25730
Epoch time:      08009.91472139
Element set:     311
Inclination:      098.7105 deg
RA of node:       351.1809 deg
Eccentricity:    0.0020264
Arg of perigee:   259.7004 deg
Mean anomaly:     100.1881 deg
Mean motion:   14.07663338 rev/day
Decay rate:       4.34e-06 rev/day^2
Epoch rev:           44655
Checksum:              278

Satellite: OKEAN-0
Catalog number: 25860
Epoch time:      08009.53649671
Element set:    0259
Inclination:      097.7393 deg
RA of node:       007.2450 deg
Eccentricity:    0.0001881
Arg of perigee:   070.7370 deg
Mean anomaly:     289.4040 deg
Mean motion:   14.73495615 rev/day
Decay rate:        7.5e-07 rev/day^2
Epoch rev:           45588
Checksum:              318

